{"data":{"norad_id":48651,"intl_designator":"2021-044P","name":"STARLINK-2731","alt_names":[],"object_type":"PAYLOAD","status":"ACTIVE","operator":null,"country":"US","launch_date":"2021-05-26","launch_site_code":"AFETR","launch_vehicle":null,"mission":null,"orbit_class":"UNKNOWN","rcs_meters":null,"size_class":null,"mass_kg":null,"dimensions":null,"purposes":["comms"],"wikipedia_slug":null,"has_3d_model":false,"image_url":null,"decayed_at":null,"tle_current":{"epoch":"2026-05-25T05:00:42.812640Z","epoch_age_seconds":60988,"freshness":"FRESH","line1":"1 48651U 21044P   26145.20882885  .00001123  00000+0  47929-4 0  9995","line2":"2 48651  53.1602 118.0502 0001130  79.4241 280.6887 15.31700985275543","mean_motion":15.31700985,"eccentricity":0.000113,"inclination_deg":53.1602,"raan_deg":118.0502,"arg_perigee_deg":79.4241,"mean_anomaly_deg":280.6887,"bstar":4.7929e-5,"rev_number":27554,"period_min":94.013127503473,"perigee_km":469.96313622481,"apogee_km":471.51098176214,"semimajor_km":6848.8740589935,"source":"CELESTRAK","updated_at":"2026-05-25T13:38:16.755309Z"}}}